Flag for Germany Past Weather in Neunkirchen (Saar), Saarland, Germany — Yesterday and Last 2 Weeks

Now
64 °F

Broken clouds.


Feels Like: 64 °F
Forecast: 58 / 71 °F
Wind: 5 mph from South

Location: Saarbruecken / Ensheim

Current Time: Jun 28, 2016 at 3:20:28 PM

Latest Report: Jun 28, 2016 at 2:50 PM


Visibility: N/A

Pressure: 30.07 "Hg

Humidity: 78%

Dew Point: 57 °F

Location of Neunkirchen (Saar)Location

Past Weather in Neunkirchen (Saar) — Graph

°F

Neunkirchen (Saar) Temperature Yesterday

Maximum temperature yesterday: 66 °F (at 4:20 PM)
Minimum temperature yesterday: 50 °F (at 2:20 AM)
Average temperature yesterday: 59 °F

High & Low Weather Summary for the Past Weeks

 TemperatureHumidityPressure
High90 °F (Jun 23, 3:50 PM)100% (Jun 14, 5:20 AM)30.27 "Hg (Jun 14, 5:20 AM)
Low45 °F (Jun 20, 4:20 AM)41% (Jun 23, 4:20 PM)29.53 "Hg (Jun 15, 5:20 AM)
Average62 °F81%29.98 "Hg
* Reported Jun 13 2:20 PM — Jun 28 2:20 PM, Neunkirchen (Saar), Weather by CustomWeather, © 2016

Note: Actual official high and low records may vary slightly from our data, if they occured in-between our weather recording intervals... More about our weather records

Advertising

Neunkirchen (Saar) Weather History for the Previous 24 Hours

Scroll right to see more
 ConditionsComfort  
Time TempWeatherWind HumidityBarometerVisibility
2:20 PM
Tue, Jun 28
64 °FBroken clouds.7 mph78%30.07 "HgN/A
1:50 PM64 °FBroken clouds.7 mph78%30.07 "HgN/A
1:20 PM64 °FBroken clouds.3 mph73%30.07 "HgN/A
12:50 PM64 °FSprinkles. Broken clouds.3 mph73%30.09 "HgN/A
12:20 PM64 °FBroken clouds.2 mph78%30.09 "HgN/A
11:50 AM64 °FBroken clouds.3 mph78%30.09 "HgN/A
11:20 AM63 °FBroken clouds.6 mph88%30.09 "HgN/A
10:50 AM63 °FBroken clouds.3 mph88%30.09 "HgN/A
10:20 AM61 °FLight rain. Broken clouds.6 mph94%30.09 "HgN/A
9:50 AM61 °FPartly sunny.6 mph88%30.09 "HgN/A
9:20 AM61 °FPartly sunny.5 mph88%30.09 "HgN/A
8:50 AM61 °FPartly sunny.7 mph94%30.09 "HgN/A
8:20 AM61 °FPartly sunny.7 mph94%30.09 "HgN/A
7:50 AM59 °FBroken clouds.3 mph94%30.09 "HgN/A
7:20 AM59 °FBroken clouds.2 mph88%30.09 "Hg6 mi
6:50 AM59 °FDrizzle. Partly sunny.6 mph94%30.09 "Hg2 mi
6:20 AM59 °FPassing clouds.6 mph94%30.09 "Hg2 mi
5:50 AM59 °FLight rain. Passing clouds.1 mph94%30.09 "HgN/A
5:20 AM59 °FPartly cloudy.1 mph88%30.09 "HgN/A
4:50 AM59 °FPartly cloudy.1 mph88%30.09 "HgN/A
4:20 AM59 °FPassing clouds.1 mph88%30.09 "HgN/A
3:50 AM59 °FClear.2 mph88%30.09 "Hg10 mi
3:20 AM59 °FClear.2 mph88%30.12 "Hg10 mi
2:50 AM61 °FClear.2 mph83%30.12 "Hg10 mi
2:20 AM61 °FClear.2 mph83%30.12 "Hg10 mi
1:50 AM61 °FPassing clouds.3 mph83%30.12 "HgN/A
1:20 AM61 °FPassing clouds.6 mph88%30.15 "HgN/A
12:50 AM61 °FPassing clouds.6 mph88%30.15 "HgN/A
12:20 AM61 °FPassing clouds.7 mph88%30.15 "HgN/A
11:50 PM
Mon, Jun 27
61 °FPassing clouds.7 mph83%30.15 "HgN/A
11:20 PM63 °FPartly cloudy.8 mph77%30.15 "HgN/A
10:50 PM63 °FPassing clouds.8 mph77%30.15 "HgN/A
10:20 PM63 °FPartly sunny.9 mph77%30.15 "HgN/A
9:50 PM63 °FBroken clouds.6 mph77%30.12 "HgN/A
9:20 PM63 °FBroken clouds.6 mph77%30.12 "HgN/A
8:50 PM64 °FPartly sunny.6 mph73%30.12 "HgN/A
8:20 PM64 °FBroken clouds.7 mph73%30.12 "HgN/A
7:50 PM64 °FPartly sunny.7 mph73%30.12 "HgN/A
7:20 PM64 °FBroken clouds.9 mph73%30.12 "HgN/A
6:50 PM64 °FBroken clouds.9 mph73%30.12 "HgN/A
6:20 PM64 °FBroken clouds.9 mph73%30.12 "HgN/A
5:50 PM64 °FBroken clouds.8 mph73%30.15 "HgN/A
5:20 PM63 °FBroken clouds.12 mph77%30.15 "HgN/A
4:50 PM64 °FBroken clouds.10 mph68%30.15 "HgN/A
4:20 PM66 °FBroken clouds.10 mph64%30.15 "HgN/A
3:50 PM64 °FBroken clouds.10 mph73%30.15 "HgN/A
3:20 PM64 °FBroken clouds.13 mph64%30.15 "HgN/A
Weather by CustomWeather, © 2016

See weather overviewHow to use our weather pages